Year,Month,Day,Hour,Minute,Value (Times are PST for temperature in C)
2019,09,30,00,00,4.30
2019,09,30,00,01,4.30
2019,09,30,00,02,4.20
2019,09,30,00,03,4.20
2019,09,30,00,04,4.20
2019,09,30,00,05,4.20
2019,09,30,00,06,4.20
2019,09,30,00,07,4.20
2019,09,30,00,08,4.10
2019,09,30,00,09,4.10
2019,09,30,00,10,4.10
2019,09,30,00,11,4.10
2019,09,30,00,12,4.10
2019,09,30,00,13,4.10
2019,09,30,00,14,4.10
2019,09,30,00,15,4.00
2019,09,30,00,16,4.00
2019,09,30,00,17,4.00
2019,09,30,00,18,4.00
2019,09,30,00,19,3.90
2019,09,30,00,20,3.90
2019,09,30,00,21,3.90
2019,09,30,00,22,3.90
2019,09,30,00,23,3.90
2019,09,30,00,24,3.90
2019,09,30,00,25,3.90
2019,09,30,00,26,3.90
2019,09,30,00,27,3.90
2019,09,30,00,28,3.90
2019,09,30,00,29,3.90
2019,09,30,00,30,3.90
2019,09,30,00,31,3.90
2019,09,30,00,32,3.90
2019,09,30,00,33,3.90
2019,09,30,00,34,3.90
2019,09,30,00,35,3.90
2019,09,30,00,36,3.90
2019,09,30,00,37,3.90
2019,09,30,00,38,3.90
2019,09,30,00,39,3.90
2019,09,30,00,40,3.90
2019,09,30,00,41,3.90
2019,09,30,00,42,3.90
2019,09,30,00,43,3.90
2019,09,30,00,44,3.90
2019,09,30,00,45,3.90
2019,09,30,00,46,3.90
2019,09,30,00,47,3.90
2019,09,30,00,48,3.90
2019,09,30,00,49,3.80
2019,09,30,00,50,3.80
2019,09,30,00,51,3.80
2019,09,30,00,52,3.80
2019,09,30,00,53,3.80
2019,09,30,00,54,3.80
2019,09,30,00,55,3.80
2019,09,30,00,56,3.80
2019,09,30,00,57,3.80
2019,09,30,00,58,3.80
2019,09,30,00,59,3.70
2019,09,30,01,00,3.70
2019,09,30,01,01,3.70
2019,09,30,01,02,3.70
2019,09,30,01,03,3.70
2019,09,30,01,04,3.70
2019,09,30,01,05,3.70
2019,09,30,01,06,3.70
2019,09,30,01,07,3.70
2019,09,30,01,08,3.70
2019,09,30,01,09,3.60
2019,09,30,01,10,3.60
2019,09,30,01,11,3.60
2019,09,30,01,12,3.60
2019,09,30,01,13,3.60
2019,09,30,01,14,3.60
2019,09,30,01,15,3.50
2019,09,30,01,16,3.50
2019,09,30,01,17,3.50
2019,09,30,01,18,3.50
2019,09,30,01,19,3.40
2019,09,30,01,20,3.40
2019,09,30,01,21,3.40
2019,09,30,01,22,3.40
2019,09,30,01,23,3.40
2019,09,30,01,24,3.40
2019,09,30,01,25,3.40
2019,09,30,01,26,3.40
2019,09,30,01,27,3.40
2019,09,30,01,28,3.40
2019,09,30,01,29,3.30
2019,09,30,01,30,3.30
2019,09,30,01,31,3.30
2019,09,30,01,32,3.30
2019,09,30,01,33,3.30
2019,09,30,01,34,3.30
2019,09,30,01,35,3.30
2019,09,30,01,36,3.30
2019,09,30,01,37,3.30
2019,09,30,01,38,3.30
2019,09,30,01,39,3.30
2019,09,30,01,40,3.30
2019,09,30,01,41,3.20
2019,09,30,01,42,3.20
2019,09,30,01,43,3.20
2019,09,30,01,44,3.20
2019,09,30,01,45,3.20
2019,09,30,01,46,3.10
2019,09,30,01,47,3.10
2019,09,30,01,48,3.10
2019,09,30,01,49,3.10
2019,09,30,01,50,3.10
2019,09,30,01,51,3.10
2019,09,30,01,52,3.10
2019,09,30,01,53,3.10
2019,09,30,01,54,3.10
2019,09,30,01,55,3.00
2019,09,30,01,56,3.00
2019,09,30,01,57,3.00
2019,09,30,01,58,3.00
2019,09,30,01,59,3.00
2019,09,30,02,00,3.00
2019,09,30,02,01,3.00
2019,09,30,02,02,2.90
2019,09,30,02,03,2.90
2019,09,30,02,04,2.90
2019,09,30,02,05,2.90
2019,09,30,02,06,2.90
2019,09,30,02,07,2.90
2019,09,30,02,08,3.00
2019,09,30,02,09,3.00
2019,09,30,02,10,3.00
2019,09,30,02,11,3.00
2019,09,30,02,12,3.00
2019,09,30,02,13,3.00
2019,09,30,02,14,3.00
2019,09,30,02,15,3.00
2019,09,30,02,16,3.00
2019,09,30,02,17,3.00
2019,09,30,02,18,3.00
2019,09,30,02,19,3.00
2019,09,30,02,20,3.00
2019,09,30,02,21,3.00
2019,09,30,02,22,3.00
2019,09,30,02,23,3.00
2019,09,30,02,24,3.00
2019,09,30,02,25,2.90
2019,09,30,02,26,2.90
2019,09,30,02,27,2.90
2019,09,30,02,28,2.90
2019,09,30,02,29,2.90
2019,09,30,02,30,2.90
2019,09,30,02,31,2.90
2019,09,30,02,32,2.90
2019,09,30,02,33,2.90
2019,09,30,02,34,2.90
2019,09,30,02,35,2.90
2019,09,30,02,36,2.90
2019,09,30,02,37,2.90
2019,09,30,02,38,2.90
2019,09,30,02,39,2.90
2019,09,30,02,40,2.90
2019,09,30,02,41,2.90
2019,09,30,02,42,2.90
2019,09,30,02,43,2.80
2019,09,30,02,44,2.80
2019,09,30,02,45,2.80
2019,09,30,02,46,2.80
2019,09,30,02,47,2.80
2019,09,30,02,48,2.80
2019,09,30,02,49,2.80
2019,09,30,02,50,2.80
2019,09,30,02,51,2.80
2019,09,30,02,52,2.80
2019,09,30,02,53,2.80
2019,09,30,02,54,2.80
2019,09,30,02,55,2.80
2019,09,30,02,56,2.80
2019,09,30,02,57,2.80
2019,09,30,02,58,2.70
2019,09,30,02,59,2.70
2019,09,30,03,00,2.70
2019,09,30,03,01,2.70
2019,09,30,03,02,2.70
2019,09,30,03,03,2.70
2019,09,30,03,04,2.70
2019,09,30,03,05,2.70
2019,09,30,03,06,2.70
2019,09,30,03,07,2.70
2019,09,30,03,08,2.70
2019,09,30,03,09,2.70
2019,09,30,03,10,2.70
2019,09,30,03,11,2.70
2019,09,30,03,12,2.70
2019,09,30,03,13,2.70
2019,09,30,03,14,2.70
2019,09,30,03,15,2.70
2019,09,30,03,16,2.70
2019,09,30,03,17,2.60
2019,09,30,03,18,2.60
2019,09,30,03,19,2.60
2019,09,30,03,20,2.60
2019,09,30,03,21,2.60
2019,09,30,03,22,2.60
2019,09,30,03,23,2.60
2019,09,30,03,24,2.60
2019,09,30,03,25,2.60
2019,09,30,03,26,2.60
2019,09,30,03,27,2.60
2019,09,30,03,28,2.60
2019,09,30,03,29,2.60
2019,09,30,03,30,2.60
2019,09,30,03,31,2.60
2019,09,30,03,32,2.60
2019,09,30,03,33,2.60
2019,09,30,03,34,2.60
2019,09,30,03,35,2.60
2019,09,30,03,36,2.60
2019,09,30,03,37,2.60
2019,09,30,03,38,2.60
2019,09,30,03,39,2.60
2019,09,30,03,40,2.60
2019,09,30,03,41,2.60
2019,09,30,03,42,2.60
2019,09,30,03,43,2.60
2019,09,30,03,44,2.60
2019,09,30,03,45,2.60
2019,09,30,03,46,2.60
2019,09,30,03,47,2.60
2019,09,30,03,48,2.60
2019,09,30,03,49,2.50
2019,09,30,03,50,2.50
2019,09,30,03,51,2.50
2019,09,30,03,52,2.50
2019,09,30,03,53,2.50
2019,09,30,03,54,2.50
2019,09,30,03,55,2.40
2019,09,30,03,56,2.40
2019,09,30,03,57,2.40
2019,09,30,03,58,2.40
2019,09,30,03,59,2.40
2019,09,30,04,00,2.40
2019,09,30,04,01,2.40
2019,09,30,04,02,2.40
2019,09,30,04,03,2.40
2019,09,30,04,04,2.40
2019,09,30,04,05,2.40
2019,09,30,04,06,2.30
2019,09,30,04,07,2.30
2019,09,30,04,08,2.30
2019,09,30,04,09,2.30
2019,09,30,04,10,2.30
2019,09,30,04,11,2.30
2019,09,30,04,12,2.30
2019,09,30,04,13,2.30
2019,09,30,04,14,2.30
2019,09,30,04,15,2.30
2019,09,30,04,16,2.30
2019,09,30,04,17,2.30
2019,09,30,04,18,2.30
2019,09,30,04,19,2.30
2019,09,30,04,20,2.20
2019,09,30,04,21,2.20
2019,09,30,04,22,2.20
2019,09,30,04,23,2.20
2019,09,30,04,24,2.20
2019,09,30,04,25,2.20
2019,09,30,04,26,2.20
2019,09,30,04,27,2.20
2019,09,30,04,28,2.20
2019,09,30,04,29,2.20
2019,09,30,04,30,2.20
2019,09,30,04,31,2.20
2019,09,30,04,32,2.20
2019,09,30,04,33,2.20
2019,09,30,04,34,2.20
2019,09,30,04,35,2.20
2019,09,30,04,36,2.20
2019,09,30,04,37,2.20
2019,09,30,04,38,2.20
2019,09,30,04,39,2.20
2019,09,30,04,40,2.20
2019,09,30,04,41,2.20
2019,09,30,04,42,2.20
2019,09,30,04,43,2.20
2019,09,30,04,44,2.20
2019,09,30,04,45,2.20
2019,09,30,04,46,2.20
2019,09,30,04,47,2.20
2019,09,30,04,48,2.20
2019,09,30,04,49,2.20
2019,09,30,04,50,2.20
2019,09,30,04,51,2.20
2019,09,30,04,52,2.10
2019,09,30,04,53,2.10
2019,09,30,04,54,2.10
2019,09,30,04,55,2.10
2019,09,30,04,56,2.10
2019,09,30,04,57,2.10
2019,09,30,04,58,2.10
2019,09,30,04,59,2.10
2019,09,30,05,00,2.10
2019,09,30,05,01,2.10
2019,09,30,05,02,2.10
2019,09,30,05,03,2.10
2019,09,30,05,04,2.10
2019,09,30,05,05,2.10
2019,09,30,05,06,2.10
2019,09,30,05,07,2.10
2019,09,30,05,08,2.00
2019,09,30,05,09,2.00
2019,09,30,05,10,2.00
2019,09,30,05,11,2.00
2019,09,30,05,12,2.00
2019,09,30,05,13,2.00
2019,09,30,05,14,2.00
2019,09,30,05,15,1.90
2019,09,30,05,16,1.90
2019,09,30,05,17,2.00
2019,09,30,05,18,1.90
2019,09,30,05,19,1.90
2019,09,30,05,20,1.90
2019,09,30,05,21,1.90
2019,09,30,05,22,1.90
2019,09,30,05,23,1.90
2019,09,30,05,24,1.90
2019,09,30,05,25,1.90
2019,09,30,05,26,1.90
2019,09,30,05,27,1.90
2019,09,30,05,28,1.90
2019,09,30,05,29,1.90
2019,09,30,05,30,1.90
2019,09,30,05,31,1.80
2019,09,30,05,32,1.80
2019,09,30,05,33,1.80
2019,09,30,05,34,1.80
2019,09,30,05,35,1.80
2019,09,30,05,36,1.80
2019,09,30,05,37,1.80
2019,09,30,05,38,1.80
2019,09,30,05,39,1.80
2019,09,30,05,40,1.80
2019,09,30,05,41,1.80
2019,09,30,05,42,1.80
2019,09,30,05,43,1.80
2019,09,30,05,44,1.80
2019,09,30,05,45,1.80
2019,09,30,05,46,1.80
2019,09,30,05,47,1.80
2019,09,30,05,48,1.80
2019,09,30,05,49,1.80
2019,09,30,05,50,1.70
2019,09,30,05,51,1.70
2019,09,30,05,52,1.70
2019,09,30,05,53,1.70
2019,09,30,05,54,1.70
2019,09,30,05,55,1.70
2019,09,30,05,56,1.70
2019,09,30,05,57,1.70
2019,09,30,05,58,1.70
2019,09,30,05,59,1.70
2019,09,30,06,00,1.70
2019,09,30,06,01,1.70
2019,09,30,06,02,1.70
2019,09,30,06,03,1.70
2019,09,30,06,04,1.70
2019,09,30,06,05,1.70
2019,09,30,06,06,1.70
2019,09,30,06,07,1.70
2019,09,30,06,08,1.70
2019,09,30,06,09,1.70
2019,09,30,06,10,1.70
2019,09,30,06,11,1.70
2019,09,30,06,12,1.70
2019,09,30,06,13,1.60
2019,09,30,06,14,1.60
2019,09,30,06,15,1.60
2019,09,30,06,16,1.60
2019,09,30,06,17,1.60
2019,09,30,06,18,1.60
2019,09,30,06,19,1.60
2019,09,30,06,20,1.60
2019,09,30,06,21,1.60
2019,09,30,06,22,1.70
2019,09,30,06,23,1.60
2019,09,30,06,24,1.60
2019,09,30,06,25,1.60
2019,09,30,06,26,1.60
2019,09,30,06,27,1.60
2019,09,30,06,28,1.60
2019,09,30,06,29,1.60
2019,09,30,06,30,1.60
2019,09,30,06,31,1.60
2019,09,30,06,32,1.60
2019,09,30,06,33,1.60
2019,09,30,06,34,1.60
2019,09,30,06,35,1.60
2019,09,30,06,36,1.60
2019,09,30,06,37,1.60
2019,09,30,06,38,1.60
2019,09,30,06,39,1.50
2019,09,30,06,40,1.50
2019,09,30,06,41,1.50
2019,09,30,06,42,1.50
2019,09,30,06,43,1.50
2019,09,30,06,44,1.50
2019,09,30,06,45,1.50
2019,09,30,06,46,1.50
2019,09,30,06,47,1.50
2019,09,30,06,48,1.50
2019,09,30,06,49,1.40
2019,09,30,06,50,1.40
2019,09,30,06,51,1.40
2019,09,30,06,52,1.40
2019,09,30,06,53,1.40
2019,09,30,06,54,1.40
2019,09,30,06,55,1.40
2019,09,30,06,56,1.40
2019,09,30,06,57,1.40
2019,09,30,06,58,1.30
2019,09,30,06,59,1.30
2019,09,30,07,00,1.30
2019,09,30,07,01,1.30
2019,09,30,07,02,1.30
2019,09,30,07,03,1.30
2019,09,30,07,04,1.20
2019,09,30,07,05,1.20
2019,09,30,07,06,1.20
2019,09,30,07,07,1.20
2019,09,30,07,08,1.20
2019,09,30,07,09,1.20
2019,09,30,07,10,1.20
2019,09,30,07,11,1.20
2019,09,30,07,12,1.20
2019,09,30,07,13,1.20
2019,09,30,07,14,1.20
2019,09,30,07,15,1.20
2019,09,30,07,16,1.20
2019,09,30,07,17,1.20
2019,09,30,07,18,1.20
2019,09,30,07,19,1.20
2019,09,30,07,20,1.20
2019,09,30,07,21,1.20
2019,09,30,07,22,1.20
2019,09,30,07,23,1.20
2019,09,30,07,24,1.20
2019,09,30,07,25,1.20
2019,09,30,07,26,1.20
2019,09,30,07,27,1.20
2019,09,30,07,28,1.20
2019,09,30,07,29,1.10
2019,09,30,07,30,1.20
2019,09,30,07,31,1.20
2019,09,30,07,32,1.20
2019,09,30,07,33,1.20
2019,09,30,07,34,1.20
2019,09,30,07,35,1.20
2019,09,30,07,36,1.10
2019,09,30,07,37,1.10
2019,09,30,07,38,1.10
2019,09,30,07,39,1.10
2019,09,30,07,40,1.10
2019,09,30,07,41,1.10
2019,09,30,07,42,1.10
2019,09,30,07,43,1.00
2019,09,30,07,44,1.00
2019,09,30,07,45,1.00
2019,09,30,07,46,1.00
2019,09,30,07,47,1.00
2019,09,30,07,48,0.90
2019,09,30,07,49,0.90
2019,09,30,07,50,0.90
2019,09,30,07,51,0.90
2019,09,30,07,52,0.90
2019,09,30,07,53,0.90
2019,09,30,07,54,0.90
2019,09,30,07,55,0.90
2019,09,30,07,56,0.90
2019,09,30,07,57,0.90
2019,09,30,07,58,0.90
2019,09,30,07,59,0.90
2019,09,30,08,00,0.90
2019,09,30,08,01,0.90
2019,09,30,08,02,0.90
2019,09,30,08,03,0.90
2019,09,30,08,04,0.90
2019,09,30,08,05,0.90
2019,09,30,08,06,0.90
2019,09,30,08,07,0.90
2019,09,30,08,08,0.90
2019,09,30,08,09,0.90
2019,09,30,08,10,0.90
2019,09,30,08,11,0.90
2019,09,30,08,12,0.90
2019,09,30,08,13,0.90
2019,09,30,08,14,0.90
2019,09,30,08,15,0.90
2019,09,30,08,16,0.90
2019,09,30,08,17,0.90
2019,09,30,08,18,0.90
2019,09,30,08,19,0.90
2019,09,30,08,20,0.90
2019,09,30,08,21,0.90
2019,09,30,08,22,0.90
2019,09,30,08,23,0.90
2019,09,30,08,24,0.90
2019,09,30,08,25,0.90
2019,09,30,08,26,0.80
2019,09,30,08,27,0.80
2019,09,30,08,28,0.80
2019,09,30,08,29,0.80
2019,09,30,08,30,0.80
2019,09,30,08,31,0.80
2019,09,30,08,32,0.80
2019,09,30,08,33,0.80
2019,09,30,08,34,0.80
2019,09,30,08,35,0.80
2019,09,30,08,36,0.80
2019,09,30,08,37,0.80
2019,09,30,08,38,0.80
2019,09,30,08,39,0.80
2019,09,30,08,40,0.90
2019,09,30,08,41,0.90
2019,09,30,08,42,1.00
2019,09,30,08,43,1.00
2019,09,30,08,44,1.10
2019,09,30,08,45,1.10
2019,09,30,08,46,1.20
2019,09,30,08,47,1.20
2019,09,30,08,48,1.30
2019,09,30,08,49,1.40
2019,09,30,08,50,1.40
2019,09,30,08,51,1.50
2019,09,30,08,52,1.50
2019,09,30,08,53,1.60
2019,09,30,08,54,1.60
2019,09,30,08,55,1.70
2019,09,30,08,56,1.70
2019,09,30,08,57,1.70
2019,09,30,08,58,1.80
2019,09,30,08,59,1.80
2019,09,30,09,00,1.90
2019,09,30,09,01,1.90
2019,09,30,09,02,2.00
2019,09,30,09,03,2.00
2019,09,30,09,04,2.10
2019,09,30,09,05,2.10
2019,09,30,09,06,2.20
2019,09,30,09,07,2.20
2019,09,30,09,08,2.20
2019,09,30,09,09,2.30
2019,09,30,09,10,2.30
2019,09,30,09,11,2.40
2019,09,30,09,12,2.50
2019,09,30,09,13,2.50
2019,09,30,09,14,2.60
2019,09,30,09,15,2.70
2019,09,30,09,16,2.70
2019,09,30,09,17,2.80
2019,09,30,09,18,2.80
2019,09,30,09,19,2.90
2019,09,30,09,20,3.00
2019,09,30,09,21,3.10
2019,09,30,09,22,3.10
2019,09,30,09,23,3.20
2019,09,30,09,24,3.30
2019,09,30,09,25,3.30
2019,09,30,09,26,3.40
2019,09,30,09,27,3.50
2019,09,30,09,28,3.50
2019,09,30,09,29,3.60
2019,09,30,09,30,3.70
2019,09,30,09,31,3.70
2019,09,30,09,32,3.80
2019,09,30,09,33,3.80
2019,09,30,09,34,3.90
2019,09,30,09,35,3.90
2019,09,30,09,36,4.00
2019,09,30,09,37,4.00
2019,09,30,09,38,4.10
2019,09,30,09,39,4.20
2019,09,30,09,40,4.20
2019,09,30,09,41,4.30
2019,09,30,09,42,4.30
2019,09,30,09,43,4.40
2019,09,30,09,44,4.40
2019,09,30,09,45,4.50
2019,09,30,09,46,4.50
2019,09,30,09,47,4.60
2019,09,30,09,48,4.60
2019,09,30,09,49,4.70
2019,09,30,09,50,4.80
2019,09,30,09,51,4.80
2019,09,30,09,52,4.90
2019,09,30,09,53,4.90
2019,09,30,09,54,5.00
2019,09,30,09,55,5.10
2019,09,30,09,56,5.20
2019,09,30,09,57,5.20
2019,09,30,09,58,5.30
2019,09,30,09,59,5.30
2019,09,30,10,00,5.40
2019,09,30,10,01,5.40
2019,09,30,10,02,5.50
2019,09,30,10,03,5.60
2019,09,30,10,04,5.60
2019,09,30,10,05,5.70
2019,09,30,10,06,5.80
2019,09,30,10,07,5.90
2019,09,30,10,08,6.00
2019,09,30,10,09,6.10
2019,09,30,10,10,6.20
2019,09,30,10,11,6.30
2019,09,30,10,12,6.40
2019,09,30,10,13,6.50
2019,09,30,10,14,6.50
2019,09,30,10,15,6.60
2019,09,30,10,16,6.60
2019,09,30,10,17,6.70
2019,09,30,10,18,6.70
2019,09,30,10,19,6.70
2019,09,30,10,20,6.80
2019,09,30,10,21,6.80
2019,09,30,10,22,6.90
2019,09,30,10,23,7.00
2019,09,30,10,24,7.10
2019,09,30,10,25,7.10
2019,09,30,10,26,7.20
2019,09,30,10,27,7.20
2019,09,30,10,28,7.30
2019,09,30,10,29,7.30
2019,09,30,10,30,7.30
2019,09,30,10,31,7.40
2019,09,30,10,32,7.50
2019,09,30,10,33,7.50
2019,09,30,10,34,7.60
2019,09,30,10,35,7.70
2019,09,30,10,36,7.80
2019,09,30,10,37,7.80
2019,09,30,10,38,7.80
2019,09,30,10,39,7.90
2019,09,30,10,40,7.90
2019,09,30,10,41,8.00
2019,09,30,10,42,8.00
2019,09,30,10,43,8.10
2019,09,30,10,44,8.20
2019,09,30,10,45,8.30
2019,09,30,10,46,8.30
2019,09,30,10,47,8.40
2019,09,30,10,48,8.50
2019,09,30,10,49,8.60
2019,09,30,10,50,8.70
2019,09,30,10,51,8.80
2019,09,30,10,52,8.80
2019,09,30,10,53,8.80
2019,09,30,10,54,8.80
2019,09,30,10,55,8.80
2019,09,30,10,56,8.80
2019,09,30,10,57,8.80
2019,09,30,10,58,8.80
2019,09,30,10,59,8.80
2019,09,30,11,00,8.80
2019,09,30,11,01,8.80
2019,09,30,11,02,8.80
2019,09,30,11,03,8.90
2019,09,30,11,04,9.00
2019,09,30,11,05,9.00
2019,09,30,11,06,9.10
2019,09,30,11,07,9.20
2019,09,30,11,08,9.30
2019,09,30,11,09,9.40
2019,09,30,11,10,9.50
2019,09,30,11,11,9.60
2019,09,30,11,12,9.70
2019,09,30,11,13,9.70
2019,09,30,11,14,9.80
2019,09,30,11,15,9.80
2019,09,30,11,16,9.80
2019,09,30,11,17,9.80
2019,09,30,11,18,9.80
2019,09,30,11,19,9.90
2019,09,30,11,20,10.00
2019,09,30,11,21,10.10
2019,09,30,11,22,10.20
2019,09,30,11,23,10.30
2019,09,30,11,24,10.40
2019,09,30,11,25,10.50
2019,09,30,11,26,10.60
2019,09,30,11,27,10.60
2019,09,30,11,28,10.60
2019,09,30,11,29,10.60
2019,09,30,11,30,10.60
2019,09,30,11,31,10.60
2019,09,30,11,32,10.70
2019,09,30,11,33,10.70
2019,09,30,11,34,10.80
2019,09,30,11,35,10.80
2019,09,30,11,36,10.90
2019,09,30,11,37,10.90
2019,09,30,11,38,11.00
2019,09,30,11,39,11.00
2019,09,30,11,40,11.00
2019,09,30,11,41,11.00
2019,09,30,11,42,11.00
2019,09,30,11,43,11.10
2019,09,30,11,44,11.10
2019,09,30,11,45,11.20
2019,09,30,11,46,11.20
2019,09,30,11,47,11.30
2019,09,30,11,48,11.30
2019,09,30,11,49,11.30
2019,09,30,11,50,11.40
2019,09,30,11,51,11.40
2019,09,30,11,52,11.50
2019,09,30,11,53,11.50
2019,09,30,11,54,11.60
2019,09,30,11,55,11.60
2019,09,30,11,56,11.60
2019,09,30,11,57,11.60
2019,09,30,11,58,11.60
2019,09,30,11,59,11.60
2019,09,30,12,00,11.60
2019,09,30,12,01,11.60
2019,09,30,12,02,11.60
2019,09,30,12,03,11.60
2019,09,30,12,04,11.60
2019,09,30,12,05,11.60
2019,09,30,12,06,11.60
2019,09,30,12,07,11.60
2019,09,30,12,08,11.60
2019,09,30,12,09,11.60
2019,09,30,12,10,11.60
2019,09,30,12,11,11.60
2019,09,30,12,12,11.60
2019,09,30,12,13,11.60
2019,09,30,12,14,11.60
2019,09,30,12,15,11.60
2019,09,30,12,16,11.60
2019,09,30,12,17,11.60
2019,09,30,12,18,11.60
2019,09,30,12,19,11.60
2019,09,30,12,20,11.60
2019,09,30,12,21,11.50
2019,09,30,12,22,11.60
2019,09,30,12,23,11.60
2019,09,30,12,24,11.60
2019,09,30,12,25,11.60
2019,09,30,12,26,11.60
2019,09,30,12,27,11.70
2019,09,30,12,28,11.70
2019,09,30,12,29,11.70
2019,09,30,12,30,11.60
2019,09,30,12,31,11.60
2019,09,30,12,32,11.60
2019,09,30,12,33,11.60
2019,09,30,12,34,11.60
2019,09,30,12,35,11.60
2019,09,30,12,36,11.60
2019,09,30,12,37,11.70
2019,09,30,12,38,11.70
2019,09,30,12,39,11.70
2019,09,30,12,40,11.80
2019,09,30,12,41,11.80
2019,09,30,12,42,11.80
2019,09,30,12,43,11.90
2019,09,30,12,44,11.90
2019,09,30,12,45,11.90
2019,09,30,12,46,11.90
2019,09,30,12,47,11.80
2019,09,30,12,48,11.80
2019,09,30,12,49,11.90
2019,09,30,12,50,11.90
2019,09,30,12,51,11.90
2019,09,30,12,52,11.90
2019,09,30,12,53,12.00
2019,09,30,12,54,12.00
2019,09,30,12,55,12.00
2019,09,30,12,56,12.00
2019,09,30,12,57,12.10
2019,09,30,12,58,12.10
2019,09,30,12,59,12.10
2019,09,30,13,00,12.10
2019,09,30,13,01,12.10
2019,09,30,13,02,12.10
2019,09,30,13,03,12.10
2019,09,30,13,04,12.10
2019,09,30,13,05,12.20
2019,09,30,13,06,12.20
2019,09,30,13,07,12.20
2019,09,30,13,08,12.20
2019,09,30,13,09,12.30
2019,09,30,13,10,12.30
2019,09,30,13,11,12.40
2019,09,30,13,12,12.40
2019,09,30,13,13,12.40
2019,09,30,13,14,12.40
2019,09,30,13,15,12.50
2019,09,30,13,16,12.50
2019,09,30,13,17,12.50
2019,09,30,13,18,12.50
2019,09,30,13,19,12.50
2019,09,30,13,20,12.60
2019,09,30,13,21,12.60
2019,09,30,13,22,12.60
2019,09,30,13,23,12.60
2019,09,30,13,24,12.60
2019,09,30,13,25,12.50
2019,09,30,13,26,12.50
2019,09,30,13,27,12.50
2019,09,30,13,28,12.50
2019,09,30,13,29,12.50
2019,09,30,13,30,12.50
2019,09,30,13,31,12.50
2019,09,30,13,32,12.50
2019,09,30,13,33,12.50
2019,09,30,13,34,12.50
2019,09,30,13,35,12.50
2019,09,30,13,36,12.60
2019,09,30,13,37,12.60
2019,09,30,13,38,12.60
2019,09,30,13,39,12.60
2019,09,30,13,40,12.70
2019,09,30,13,41,12.70
2019,09,30,13,42,12.80
2019,09,30,13,43,12.80
2019,09,30,13,44,12.80
2019,09,30,13,45,12.90
2019,09,30,13,46,13.00
2019,09,30,13,47,13.10
2019,09,30,13,48,13.10
2019,09,30,13,49,13.20
2019,09,30,13,50,13.20
2019,09,30,13,51,13.30
2019,09,30,13,52,13.30
2019,09,30,13,53,13.30
2019,09,30,13,54,13.30
2019,09,30,13,55,13.30
2019,09,30,13,56,13.40
2019,09,30,13,57,13.40
2019,09,30,13,58,13.40
2019,09,30,13,59,13.50
2019,09,30,14,00,13.50
2019,09,30,14,01,13.50
2019,09,30,14,02,13.60
2019,09,30,14,03,13.60
2019,09,30,14,04,13.60
2019,09,30,14,05,13.60
2019,09,30,14,06,13.60
2019,09,30,14,07,13.60
2019,09,30,14,08,13.70
2019,09,30,14,09,13.70
2019,09,30,14,10,13.70
2019,09,30,14,11,13.70
2019,09,30,14,12,13.80
2019,09,30,14,13,13.80
2019,09,30,14,14,13.90
2019,09,30,14,15,14.00
2019,09,30,14,16,14.00
2019,09,30,14,17,14.10
2019,09,30,14,18,14.20
2019,09,30,14,19,14.20
2019,09,30,14,20,14.20
2019,09,30,14,21,14.30
2019,09,30,14,22,14.30
2019,09,30,14,23,14.30
2019,09,30,14,24,14.40
2019,09,30,14,25,14.40
2019,09,30,14,26,14.40
2019,09,30,14,27,14.40
2019,09,30,14,28,14.40
2019,09,30,14,29,14.40
2019,09,30,14,30,14.40
2019,09,30,14,31,14.40
2019,09,30,14,32,14.30
2019,09,30,14,33,14.30
2019,09,30,14,34,14.30
2019,09,30,14,35,14.20
2019,09,30,14,36,14.20
2019,09,30,14,37,14.20
2019,09,30,14,38,14.20
2019,09,30,14,39,14.10
2019,09,30,14,40,14.10
2019,09,30,14,41,14.20
2019,09,30,14,42,14.10
2019,09,30,14,43,14.10
2019,09,30,14,44,14.10
2019,09,30,14,45,14.10
2019,09,30,14,46,14.10
2019,09,30,14,47,14.10
2019,09,30,14,48,14.00
2019,09,30,14,49,14.00
2019,09,30,14,50,14.00
2019,09,30,14,51,14.00
2019,09,30,14,52,13.90
2019,09,30,14,53,13.90
2019,09,30,14,54,13.90
2019,09,30,14,55,13.90
2019,09,30,14,56,13.80
2019,09,30,14,57,13.80
2019,09,30,14,58,13.80
2019,09,30,14,59,13.80
2019,09,30,15,00,13.70
2019,09,30,15,01,13.70
2019,09,30,15,02,13.70
2019,09,30,15,03,13.70
2019,09,30,15,04,13.70
2019,09,30,15,05,13.70
2019,09,30,15,06,13.70
2019,09,30,15,07,13.70
2019,09,30,15,08,13.70
2019,09,30,15,09,13.70
2019,09,30,15,10,13.70
2019,09,30,15,11,13.70
2019,09,30,15,12,13.70
2019,09,30,15,13,13.70
2019,09,30,15,14,13.70
2019,09,30,15,15,13.70
2019,09,30,15,16,13.70
2019,09,30,15,17,13.70
2019,09,30,15,18,13.70
2019,09,30,15,19,13.80
2019,09,30,15,20,13.80
2019,09,30,15,21,13.80
2019,09,30,15,22,13.80
2019,09,30,15,23,13.80
2019,09,30,15,24,13.80
2019,09,30,15,25,13.80
2019,09,30,15,26,13.70
2019,09,30,15,27,13.70
2019,09,30,15,28,13.70
2019,09,30,15,29,13.70
2019,09,30,15,30,13.60
2019,09,30,15,31,13.60
2019,09,30,15,32,13.60
2019,09,30,15,33,13.60
2019,09,30,15,34,13.60
2019,09,30,15,35,13.60
2019,09,30,15,36,13.50
2019,09,30,15,37,13.50
2019,09,30,15,38,13.50
2019,09,30,15,39,13.50
2019,09,30,15,40,13.50
2019,09,30,15,41,13.50
2019,09,30,15,42,13.50
2019,09,30,15,43,13.50
2019,09,30,15,44,13.50
2019,09,30,15,45,13.60
2019,09,30,15,46,13.60
2019,09,30,15,47,13.60
2019,09,30,15,48,13.60
2019,09,30,15,49,13.60
2019,09,30,15,50,13.60
2019,09,30,15,51,13.60
2019,09,30,15,52,13.50
2019,09,30,15,53,13.50
2019,09,30,15,54,13.50
2019,09,30,15,55,13.40
2019,09,30,15,56,13.40
2019,09,30,15,57,13.30
2019,09,30,15,58,13.30
2019,09,30,15,59,13.30
2019,09,30,16,00,13.20
2019,09,30,16,01,13.20
2019,09,30,16,02,13.20
2019,09,30,16,03,13.20
2019,09,30,16,04,13.20
2019,09,30,16,05,13.20
2019,09,30,16,06,13.20
2019,09,30,16,07,13.20
2019,09,30,16,08,13.20
2019,09,30,16,09,13.20
2019,09,30,16,10,13.20
2019,09,30,16,11,13.20
2019,09,30,16,12,13.30
2019,09,30,16,13,13.30
2019,09,30,16,14,13.30
2019,09,30,16,15,13.40
2019,09,30,16,16,13.40
2019,09,30,16,17,13.40
2019,09,30,16,18,13.40
2019,09,30,16,19,13.40
2019,09,30,16,20,13.40
2019,09,30,16,21,13.40
2019,09,30,16,22,13.40
2019,09,30,16,23,13.30
2019,09,30,16,24,13.30
2019,09,30,16,25,13.20
2019,09,30,16,26,13.20
2019,09,30,16,27,13.10
2019,09,30,16,28,13.10
2019,09,30,16,29,13.10
2019,09,30,16,30,13.00
2019,09,30,16,31,13.00
2019,09,30,16,32,12.90
2019,09,30,16,33,12.90
2019,09,30,16,34,12.80
2019,09,30,16,35,12.80
2019,09,30,16,36,12.70
2019,09,30,16,37,12.60
2019,09,30,16,38,12.60
2019,09,30,16,39,12.50
2019,09,30,16,40,12.40
2019,09,30,16,41,12.30
2019,09,30,16,42,12.30
2019,09,30,16,43,12.20
2019,09,30,16,44,12.10
2019,09,30,16,45,12.00
2019,09,30,16,46,12.00
2019,09,30,16,47,11.90
2019,09,30,16,48,11.80
2019,09,30,16,49,11.70
2019,09,30,16,50,11.70
2019,09,30,16,51,11.60
2019,09,30,16,52,11.60
2019,09,30,16,53,11.50
2019,09,30,16,54,11.50
2019,09,30,16,55,11.40
2019,09,30,16,56,11.30
2019,09,30,16,57,11.30
2019,09,30,16,58,11.20
2019,09,30,16,59,11.10
2019,09,30,17,00,11.10
2019,09,30,17,01,11.00
2019,09,30,17,02,10.90
2019,09,30,17,03,10.80
2019,09,30,17,04,10.70
2019,09,30,17,05,10.70
2019,09,30,17,06,10.60
2019,09,30,17,07,10.50
2019,09,30,17,08,10.50
2019,09,30,17,09,10.40
2019,09,30,17,10,10.40
2019,09,30,17,11,10.30
2019,09,30,17,12,10.30
2019,09,30,17,13,10.20
2019,09,30,17,14,10.20
2019,09,30,17,15,10.20
2019,09,30,17,16,10.10
2019,09,30,17,17,10.10
2019,09,30,17,18,10.10
2019,09,30,17,19,10.10
2019,09,30,17,20,10.00
2019,09,30,17,21,10.00
2019,09,30,17,22,10.00
2019,09,30,17,23,9.90
2019,09,30,17,24,9.90
2019,09,30,17,25,9.90
2019,09,30,17,26,9.80
2019,09,30,17,27,9.80
2019,09,30,17,28,9.80
2019,09,30,17,29,9.80
2019,09,30,17,30,9.80
2019,09,30,17,31,9.70
2019,09,30,17,32,9.70
2019,09,30,17,33,9.70
2019,09,30,17,34,9.70
2019,09,30,17,35,9.70
2019,09,30,17,36,9.70
2019,09,30,17,37,9.60
2019,09,30,17,38,9.60
2019,09,30,17,39,9.60
2019,09,30,17,40,9.60
2019,09,30,17,41,9.60
2019,09,30,17,42,9.50
2019,09,30,17,43,9.50
2019,09,30,17,44,9.50
2019,09,30,17,45,9.50
2019,09,30,17,46,9.50
2019,09,30,17,47,9.50
2019,09,30,17,48,9.50
2019,09,30,17,49,9.50
2019,09,30,17,50,9.50